| time (UTC) | temp C | wind direction | speed KPH | gust KPH | rain 1hr cm | rain 24hr cm | rain mn cm | humidity % | barometer mb |
| 20260505195032 | 9 | 0 | 0.0 | 0.0 | 0.13 | 0.43 | 0.43 | 10 | 1008.8 |
| 20260505191038 | 9 | 0 | 0.0 | 0.0 | 0.13 | 0.33 | 0.33 | 10 | 1008.6 |
| 20260505185038 | 9 | 0 | 0.0 | 0.0 | 0.13 | 0.33 | 0.33 | 10 | 1008.6 |
| 20260505184039 | 9 | 0 | 0.0 | 0.0 | 0.13 | 0.30 | 0.30 | 10 | 1008.5 |
| 20260505183025 | 9 | 0 | 0.0 | 0.0 | 0.13 | 0.28 | 0.28 | 10 | 1008.5 |
| 20260505182040 | 9 | 0 | 0.0 | 0.0 | 0.13 | 0.25 | 0.25 | 10 | 1008.5 |
| 20260505180035 | 10 | 0 | 0.0 | 0.0 | 0.10 | 0.23 | 0.23 | 10 | 1008.5 |
| 20260505175038 | 10 | 0 | 0.0 | 0.0 | 0.10 | 0.23 | 0.23 | 10 | 1008.5 |
| 20260505174038 | 10 | 0 | 0.0 | 0.0 | 0.08 | 0.20 | 0.20 | 10 | 1008.6 |
| 20260505173037 | 10 | 0 | 0.0 | 0.0 | 0.05 | 0.18 | 0.18 | 10 | 1008.6 |
| 20260505172033 | 10 | 0 | 0.0 | 0.0 | 0.05 | 0.15 | 0.15 | 10 | 1008.6 |
| 20260505171035 | 10 | 0 | 0.0 | 0.0 | 0.03 | 0.15 | 0.15 | 10 | 1008.6 |
| 20260505165037 | 10 | 0 | 0.0 | 0.0 | 0.00 | 0.13 | 0.13 | 10 | 1008.7 |
| 20260505161038 | 10 | 0 | 0.0 | 0.0 | 0.00 | 0.15 | 0.13 | 10 | 1008.7 |
| 20260505153034 | 10 | 0 | 0.0 | 0.0 | 0.00 | 0.15 | 0.13 | 10 | 1008.9 |
| 20260505152033 | 10 | 0 | 0.0 | 0.0 | 0.00 | 0.15 | 0.13 | 10 | 1008.9 |
| 20260505151037 | 10 | 0 | 0.0 | 0.0 | 0.00 | 0.15 | 0.13 | 10 | 1008.9 |
| 20260505125038 | 10 | 0 | 0.0 | 0.0 | 0.00 | 0.23 | 0.13 | 10 | 1009.7 |
| 20260505124036 | 10 | 0 | 0.0 | 0.0 | 0.00 | 0.23 | 0.13 | 10 | 1009.7 |
| 20260505123036 | 10 | 0 | 0.0 | 0.0 | 0.00 | 0.23 | 0.13 | 10 | 1009.6 |
| 20260505122039 | 10 | 0 | 0.0 | 0.0 | 0.00 | 0.23 | 0.13 | 10 | 1009.5 |
| 20260505121036 | 10 | 0 | 0.0 | 0.0 | 0.00 | 0.23 | 0.13 | 10 | 1009.6 |
| 20260505120036 | 10 | 0 | 0.0 | 0.0 | 0.00 | 0.23 | 0.13 | 10 | 1009.6 |
| 20260505115038 | 10 | 0 | 0.0 | 0.0 | 0.00 | 0.23 | 0.13 | 10 | 1009.6 |
| 20260505114039 | 10 | 0 | 0.0 | 0.0 | 0.00 | 0.23 | 0.13 | 10 | 1009.7 |
| 20260505113037 | 10 | 0 | 0.0 | 0.0 | 0.00 | 0.23 | 0.13 | 10 | 1009.7 |
| 20260505112038 | 10 | 0 | 0.0 | 0.0 | 0.00 | 0.23 | 0.13 | 10 | 1009.8 |
| 20260505111038 | 10 | 0 | 0.0 | 0.0 | 0.03 | 0.23 | 0.13 | 10 | 1009.9 |
| 20260505102033 | 10 | 0 | 0.0 | 0.0 | 0.05 | 0.23 | 0.13 | 10 | 1010.0 |
| 20260505101039 | 10 | 0 | 0.0 | 0.0 | 0.05 | 0.23 | 0.13 | 10 | 1010.0 |
| 20260505095038 | 10 | 0 | 0.0 | 0.0 | 0.03 | 0.20 | 0.10 | 10 | 1010.1 |
| 20260505094037 | 10 | 0 | 0.0 | 0.0 | 0.03 | 0.20 | 0.10 | 10 | 1010.1 |
| 20260505093039 | 10 | 0 | 0.0 | 0.0 | 0.00 | 0.18 | 0.08 | 10 | 1010.0 |
| 20260505092038 | 10 | 0 | 0.0 | 0.0 | 0.00 | 0.18 | 0.08 | 10 | 1010.0 |
| 20260505091038 | 10 | 0 | 0.0 | 0.0 | 0.00 | 0.18 | 0.08 | 10 | 1010.1 |
| 20260505085038 | 11 | 0 | 0.0 | 0.0 | 0.00 | 0.18 | 0.08 | 10 | 1010.0 |
| 20260505084036 | 11 | 0 | 0.0 | 0.0 | 0.00 | 0.18 | 0.08 | 10 | 1010.0 |
| 20260505082037 | 11 | 0 | 0.0 | 0.0 | 0.00 | 0.18 | 0.08 | 10 | 1010.2 |
| 20260505081036 | 11 | 0 | 0.0 | 0.0 | 0.00 | 0.18 | 0.08 | 10 | 1010.1 |
| 20260505075032 | 11 | 0 | 0.0 | 0.0 | 0.00 | 0.18 | 0.08 | 10 | 1010.2 |
| 20260505074036 | 11 | 0 | 0.0 | 0.0 | 0.00 | 0.18 | 0.08 | 10 | 1010.2 |
| 20260505072033 | 11 | 0 | 0.0 | 0.0 | 0.00 | 0.18 | 0.08 | 10 | 1010.1 |
| 20260505071028 | 11 | 0 | 0.0 | 0.0 | 0.00 | 0.18 | 0.08 | 10 | 1010.1 |
| 20260505070024 | 11 | 0 | 0.0 | 0.0 | 0.00 | 0.18 | 0.08 | 10 | 1010.2 |
| 20260505065036 | 11 | 0 | 0.0 | 0.0 | 0.00 | 0.18 | 0.08 | 10 | 1010.2 |
| 20260505064028 | 11 | 0 | 0.0 | 0.0 | 0.00 | 0.18 | 0.08 | 10 | 1010.2 |
| 20260505063033 | 11 | 0 | 0.0 | 0.0 | 0.00 | 0.18 | 0.08 | 10 | 1010.2 |
| 20260505060034 | 11 | 0 | 0.0 | 0.0 | 0.03 | 0.18 | 0.08 | 10 | 1010.2 |
| 20260505055037 | 11 | 0 | 0.0 | 0.0 | 0.05 | 0.18 | 0.08 | 10 | 1010.3 |
| 20260505054037 | 11 | 0 | 0.0 | 0.0 | 0.05 | 0.18 | 0.08 | 10 | 1010.3 |
| 20260505051037 | 11 | 0 | 0.0 | 0.0 | 0.05 | 0.18 | 0.08 | 10 | 1010.3 |
| 20260505041020 | 11 | 0 | 0.0 | 0.0 | 0.00 | 0.13 | 0.03 | 10 | 1010.4 |
| 20260505034026 | 11 | 0 | 0.0 | 0.0 | 0.03 | 0.13 | 0.03 | 10 | 1010.5 |
| 20260505033036 | 10 | 0 | 0.0 | 0.0 | 0.03 | 0.13 | 0.03 | 10 | 1010.5 |
| 20260505032023 | 10 | 0 | 0.0 | 0.0 | 0.03 | 0.13 | 0.03 | 10 | 1010.6 |
| 20260505031022 | 10 | 0 | 0.0 | 0.0 | 0.03 | 0.13 | 0.03 | 10 | 1010.7 |
| 20260505030035 | 10 | 0 | 0.0 | 0.0 | 0.03 | 0.13 | 0.03 | 10 | 1010.8 |
| 20260505025021 | 11 | 0 | 0.0 | 0.0 | 0.03 | 0.13 | 0.03 | 10 | 1010.9 |
| 20260505024036 | 10 | 0 | 0.0 | 0.0 | 0.03 | 0.13 | 0.03 | 10 | 1010.9 |
| 20260505022037 | 10 | 0 | 0.0 | 0.0 | 0.00 | 0.10 | 0.00 | 10 | 1011.0 |
| 20260505021038 | 10 | 0 | 0.0 | 0.0 | 0.00 | 0.10 | 0.00 | 10 | 1011.0 |
| 20260505020039 | 10 | 0 | 0.0 | 0.0 | 0.00 | 0.10 | 0.00 | 10 | 1010.9 |
| 20260505015021 | 11 | 0 | 0.0 | 0.0 | 0.00 | 0.10 | 0.00 | 10 | 1010.9 |
| 20260505014020 | 11 | 0 | 0.0 | 0.0 | 0.00 | 0.10 | 0.00 | 10 | 1010.9 |
| 20260505013034 | 11 | 0 | 0.0 | 0.0 | 0.00 | 0.10 | 0.00 | 10 | 1010.9 |
| 20260505012022 | 11 | 0 | 0.0 | 0.0 | 0.00 | 0.10 | 0.00 | 10 | 1011.0 |
| 20260505011036 | 11 | 0 | 0.0 | 0.0 | 0.00 | 0.10 | 0.00 | 10 | 1011.0 |
| 20260505010021 | 11 | 0 | 0.0 | 0.0 | 0.00 | 0.10 | 0.00 | 10 | 1011.1 |
| 20260505004022 | 11 | 0 | 0.0 | 0.0 | 0.00 | 0.10 | 0.00 | 10 | 1011.3 |
| 20260505003037 | 11 | 0 | 0.0 | 0.0 | 0.00 | 0.10 | 0.00 | 10 | 1011.4 |
| 20260505002035 | 11 | 0 | 0.0 | 0.0 | 0.00 | 0.10 | 0.00 | 10 | 1011.5 |
| 20260505000037 | 11 | 0 | 0.0 | 0.0 | 0.00 | 0.10 | 0.00 | 10 | 1011.6 |
| 20260504235038 | 11 | 0 | 0.0 | 0.0 | 0.00 | 0.10 | 0.00 | 10 | 1011.7 |
| 20260504234038 | 11 | 0 | 0.0 | 0.0 | 0.00 | 0.10 | 0.00 | 10 | 1011.7 |
| 20260504232032 | 11 | 0 | 0.0 | 0.0 | 0.00 | 0.10 | 0.00 | 10 | 1011.8 |
| 20260504231039 | 11 | 0 | 0.0 | 0.0 | 0.00 | 0.10 | 0.00 | 10 | 1012.0 |
| 20260504230033 | 12 | 0 | 0.0 | 0.0 | 0.00 | 0.10 | 0.00 | 10 | 1011.9 |
| 20260504225037 | 12 | 0 | 0.0 | 0.0 | 0.00 | 0.10 | 0.00 | 10 | 1012.0 |
| 20260504224032 | 12 | 0 | 0.0 | 0.0 | 0.00 | 0.10 | 0.00 | 10 | 1012.2 |
| 20260504223037 | 12 | 0 | 0.0 | 0.0 | 0.00 | 0.10 | 0.00 | 10 | 1012.2 |
| 20260504222039 | 12 | 0 | 0.0 | 0.0 | 0.00 | 0.10 | 0.00 | 10 | 1012.3 |
| 20260504221031 | 12 | 0 | 0.0 | 0.0 | 0.00 | 0.10 | 0.00 | 99 | 1012.4 |
| 20260504220037 | 12 | 0 | 0.0 | 0.0 | 0.00 | 0.10 | 0.00 | 99 | 1012.5 |
| 20260504215038 | 12 | 0 | 0.0 | 0.0 | 0.00 | 0.10 | 0.10 | 98 | 1012.5 |
| 20260504214040 | 12 | 0 | 0.0 | 0.0 | 0.00 | 0.10 | 0.10 | 98 | 1012.6 |
| 20260504213037 | 12 | 0 | 0.0 | 0.0 | 0.00 | 0.10 | 0.10 | 98 | 1012.6 |
| 20260504212038 | 12 | 0 | 0.0 | 0.0 | 0.00 | 0.10 | 0.10 | 98 | 1012.7 |
| 20260504211037 | 12 | 0 | 0.0 | 0.0 | 0.00 | 0.10 | 0.10 | 98 | 1012.7 |
| 20260504210038 | 12 | 0 | 0.0 | 0.0 | 0.00 | 0.10 | 0.10 | 98 | 1012.8 |
| 20260504205038 | 12 | 0 | 0.0 | 0.0 | 0.00 | 0.10 | 0.10 | 99 | 1012.8 |
| 20260504204037 | 12 | 0 | 0.0 | 0.0 | 0.00 | 0.10 | 0.10 | 98 | 1012.8 |
| 20260504203039 | 12 | 0 | 0.0 | 0.0 | 0.00 | 0.10 | 0.10 | 98 | 1012.8 |
| 20260504201040 | 12 | 0 | 0.0 | 0.0 | 0.00 | 0.10 | 0.10 | 96 | 1012.9 |
| 20260504200040 | 12 | 0 | 0.0 | 0.0 | 0.00 | 0.10 | 0.10 | 96 | 1012.7 |
| 20260504195034 | 12 | 0 | 0.0 | 0.0 | 0.00 | 0.10 | 0.10 | 96 | 1012.7 |